Ava Foss — WDF5779 — position and weather

sailwx.info

Track history (hours):
 
Tides and Currents Weather Stations Pressure Air Temp Water Temp Dewpoint Dewpoint Depression Visibility Wind Speed Wind Dir Waves Ship Positions

Ava Foss

Owner: Foss Maritime Company, Seattle, WA. More information available from US FCC via Universal Licensing System and Coast Guard Vessel Documentation Center.

Last reported at 2014-Nov-27 04:05 UTC. Time now 2014-Nov-27 05:33 UTC.
Position N 33°50' W 118°24'.

Length 10 m; draft 2.5 m.

Type: Passenger vessel. MMSI: 367467120.

Date/timePositionNaut miles runAvg speedWind from/ knotsBaromVisibWave heightAir tempDewpointWater temp
2014-Nov-27 04:05N 33°50' W 118°24'5 8.3
2014-Nov-27 03:27N 33°55' W 118°27'5 0.7
2014-Nov-26 20:20N 33°51' W 118°24'0 0.0
2014-Nov-26 19:14N 33°51' W 118°24'0 0.0
2014-Nov-26 18:29N 33°51' W 118°24'0 0.0
2014-Nov-26 17:33N 33°51' W 118°24'5 1.2
2014-Nov-26 13:25N 33°54' W 118°27'3 1.8
2014-Nov-26 11:34N 33°52' W 118°25'1 0.1
2014-Nov-26 00:33N 33°53' W 118°26'2 1.8
2014-Nov-25 23:33N 33°51' W 118°25'1 0.5
2014-Nov-25 21:15N 33°51' W 118°24'5 6.3
2014-Nov-25 20:29N 33°54' W 118°27'5 4.5
2014-Nov-25 19:24N 33°51' W 118°24'5 6.2
2014-Nov-25 18:33N 33°55' W 118°27'5 4.9
2014-Nov-25 17:29N 33°51' W 118°24'2 1.8
2014-Nov-25 16:33N 33°51' W 118°25'1 0.8
2014-Nov-25 15:06N 33°51' W 118°24'2 3.6
2014-Nov-25 14:26N 33°52' W 118°27'3 0.4
2014-Nov-25 08:17N 33°51' W 118°24'5 3.0
2014-Nov-25 06:32N 33°55' W 118°27'3 2.9
2014-Nov-25 05:33N 33°52' W 118°25'2 1.2
2014-Nov-25 03:32N 33°51' W 118°24'1 0.5
2014-Nov-25 00:33N 33°52' W 118°25'1 0.5
2014-Nov-24 21:23N 33°51' W 118°24'0 0.1
2014-Nov-24 20:33N 33°51' W 118°24'0 0.1
2014-Nov-24 19:21N 33°51' W 118°24'0 0.0
2014-Nov-24 18:30N 33°51' W 118°24'0 0.0
2014-Nov-24 01:18N 33°51' W 118°24'0 0.0
2014-Nov-23 22:03N 33°51' W 118°24'0 0.0
2014-Nov-23 21:33N 33°51' W 118°24'0 0.0
2014-Nov-23 20:33N 33°51' W 118°24'0 0.0
2014-Nov-23 19:33N 33°51' W 118°24'0 0.0
2014-Nov-23 18:33N 33°51' W 118°24'0 0.0
2014-Nov-23 17:30N 33°51' W 118°24'0 0.0
2014-Nov-22 19:33N 33°51' W 118°24'0 0.0
2014-Nov-22 18:30N 33°51' W 118°24'0 0.0
2014-Nov-22 17:30N 33°51' W 118°24'0 0.0
2014-Nov-22 06:30N 33°51' W 118°24'0 0.1
2014-Nov-22 04:07N 33°51' W 118°24'0 0.0
2014-Nov-21 19:32N 33°51' W 118°24'0 0.0
2014-Nov-21 18:33N 33°51' W 118°24'0 0.0
2014-Nov-21 17:33N 33°51' W 118°24'0 0.0
2014-Nov-21 14:33N 33°51' W 118°24'0 0.0
2014-Nov-21 13:23N 33°51' W 118°24'0 0.0
2014-Nov-21 12:32N 33°51' W 118°24'0 0.0
2014-Nov-21 11:26N 33°51' W 118°24'0 0.0
2014-Nov-21 10:32N 33°51' W 118°24'0 0.0
2014-Nov-21 09:32N 33°51' W 118°24'0 0.0
2014-Nov-21 08:23N 33°51' W 118°24'2 0.3
2014-Nov-21 01:30N 33°52' W 118°26'2 0.8
2014-Nov-20 22:32N 33°51' W 118°24'4 3.7
2014-Nov-20 21:33N 33°53' W 118°26'4 2.9
2014-Nov-20 20:20N 33°51' W 118°24'0 0.0
2014-Nov-20 19:26N 33°51' W 118°24'5 5.5
2014-Nov-20 18:33N 33°54' W 118°27'5 4.8
2014-Nov-20 17:34N 33°51' W 118°24'0 0.0
2014-Nov-20 15:31N 33°51' W 118°24'0 0.0
2014-Nov-20 13:07N 33°51' W 118°24'0 0.0
2014-Nov-20 12:31N 33°51' W 118°24'0 0.0
2014-Nov-20 11:31N 33°51' W 118°24'1 0.2
2014-Nov-20 07:34N 33°51' W 118°25'4 4.0
2014-Nov-20 06:30N 33°55' W 118°27'2 1.7
2014-Nov-20 05:33N 33°53' W 118°26'3 0.9
2014-Nov-20 01:33N 33°51' W 118°24'0 0.0
2014-Nov-20 00:33N 33°51' W 118°24'5 5.1
2014-Nov-19 23:32N 33°55' W 118°27'0 0.1
2014-Nov-19 22:33N 33°55' W 118°27'5 4.9
2014-Nov-19 21:33N 33°51' W 118°24'5 5.0
2014-Nov-19 20:33N 33°50' W 118°30'5 4.2
2014-Nov-19 19:19N 33°54' W 118°27'5 6.4
2014-Nov-19 18:33N 33°51' W 118°24'0 0.0
2014-Nov-19 17:31N 33°51' W 118°24'0 0.1
2014-Nov-19 10:27N 33°50' W 118°24'0 0.1
2014-Nov-19 04:29N 33°51' W 118°24'6 6.5
2014-Nov-19 03:33N 33°54' W 118°29'6 6.0
2014-Nov-19 02:33N 33°51' W 118°24'0 0.0
2014-Nov-19 00:31N 33°51' W 118°24'  
Track history (hours):
 
Tides and Currents Weather Stations Pressure Air Temp Water Temp Dewpoint Dewpoint Depression Visibility Wind Speed Wind Dir Waves Ship Positions

Ava Foss

Owner: Foss Maritime Company, Seattle, WA. More information available from US FCC via Universal Licensing System and Coast Guard Vessel Documentation Center.

Last reported at 2014-Nov-27 04:05 UTC. Time now 2014-Nov-27 05:33 UTC.
Position N 33°50' W 118°24'.

Length 10 m; draft 2.5 m.

Type: Passenger vessel. MMSI: 367467120.

Date/timePositionNaut miles runAvg speedWind from/ knotsBaromVisibWave heightAir tempDewpointWater temp
2014-Nov-27 04:05N 33°50' W 118°24'5 8.3
2014-Nov-27 03:27N 33°55' W 118°27'5 0.7
2014-Nov-26 20:20N 33°51' W 118°24'0 0.0
2014-Nov-26 19:14N 33°51' W 118°24'0 0.0
2014-Nov-26 18:29N 33°51' W 118°24'0 0.0
2014-Nov-26 17:33N 33°51' W 118°24'5 1.2
2014-Nov-26 13:25N 33°54' W 118°27'3 1.8
2014-Nov-26 11:34N 33°52' W 118°25'1 0.1
2014-Nov-26 00:33N 33°53' W 118°26'2 1.8
2014-Nov-25 23:33N 33°51' W 118°25'1 0.5
2014-Nov-25 21:15N 33°51' W 118°24'5 6.3
2014-Nov-25 20:29N 33°54' W 118°27'5 4.5
2014-Nov-25 19:24N 33°51' W 118°24'5 6.2
2014-Nov-25 18:33N 33°55' W 118°27'5 4.9
2014-Nov-25 17:29N 33°51' W 118°24'2 1.8
2014-Nov-25 16:33N 33°51' W 118°25'1 0.8
2014-Nov-25 15:06N 33°51' W 118°24'2 3.6
2014-Nov-25 14:26N 33°52' W 118°27'3 0.4
2014-Nov-25 08:17N 33°51' W 118°24'5 3.0
2014-Nov-25 06:32N 33°55' W 118°27'3 2.9
2014-Nov-25 05:33N 33°52' W 118°25'2 1.2
2014-Nov-25 03:32N 33°51' W 118°24'1 0.5
2014-Nov-25 00:33N 33°52' W 118°25'1 0.5
2014-Nov-24 21:23N 33°51' W 118°24'0 0.1
2014-Nov-24 20:33N 33°51' W 118°24'0 0.1
2014-Nov-24 19:21N 33°51' W 118°24'0 0.0
2014-Nov-24 18:30N 33°51' W 118°24'0 0.0
2014-Nov-24 01:18N 33°51' W 118°24'0 0.0
2014-Nov-23 22:03N 33°51' W 118°24'0 0.0
2014-Nov-23 21:33N 33°51' W 118°24'0 0.0
2014-Nov-23 20:33N 33°51' W 118°24'0 0.0
2014-Nov-23 19:33N 33°51' W 118°24'0 0.0
2014-Nov-23 18:33N 33°51' W 118°24'0 0.0
2014-Nov-23 17:30N 33°51' W 118°24'0 0.0
2014-Nov-22 19:33N 33°51' W 118°24'0 0.0
2014-Nov-22 18:30N 33°51' W 118°24'0 0.0
2014-Nov-22 17:30N 33°51' W 118°24'0 0.0
2014-Nov-22 06:30N 33°51' W 118°24'0 0.1
2014-Nov-22 04:07N 33°51' W 118°24'0 0.0
2014-Nov-21 19:32N 33°51' W 118°24'0 0.0
2014-Nov-21 18:33N 33°51' W 118°24'0 0.0
2014-Nov-21 17:33N 33°51' W 118°24'0 0.0
2014-Nov-21 14:33N 33°51' W 118°24'0 0.0
2014-Nov-21 13:23N 33°51' W 118°24'0 0.0
2014-Nov-21 12:32N 33°51' W 118°24'0 0.0
2014-Nov-21 11:26N 33°51' W 118°24'0 0.0
2014-Nov-21 10:32N 33°51' W 118°24'0 0.0
2014-Nov-21 09:32N 33°51' W 118°24'0 0.0
2014-Nov-21 08:23N 33°51' W 118°24'2 0.3
2014-Nov-21 01:30N 33°52' W 118°26'2 0.8
2014-Nov-20 22:32N 33°51' W 118°24'4 3.7
2014-Nov-20 21:33N 33°53' W 118°26'4 2.9
2014-Nov-20 20:20N 33°51' W 118°24'0 0.0
2014-Nov-20 19:26N 33°51' W 118°24'5 5.5
2014-Nov-20 18:33N 33°54' W 118°27'5 4.8
2014-Nov-20 17:34N 33°51' W 118°24'0 0.0
2014-Nov-20 15:31N 33°51' W 118°24'0 0.0
2014-Nov-20 13:07N 33°51' W 118°24'0 0.0
2014-Nov-20 12:31N 33°51' W 118°24'0 0.0
2014-Nov-20 11:31N 33°51' W 118°24'1 0.2
2014-Nov-20 07:34N 33°51' W 118°25'4 4.0
2014-Nov-20 06:30N 33°55' W 118°27'2 1.7
2014-Nov-20 05:33N 33°53' W 118°26'3 0.9
2014-Nov-20 01:33N 33°51' W 118°24'0 0.0
2014-Nov-20 00:33N 33°51' W 118°24'5 5.1
2014-Nov-19 23:32N 33°55' W 118°27'0 0.1
2014-Nov-19 22:33N 33°55' W 118°27'5 4.9
2014-Nov-19 21:33N 33°51' W 118°24'5 5.0
2014-Nov-19 20:33N 33°50' W 118°30'5 4.2
2014-Nov-19 19:19N 33°54' W 118°27'5 6.4
2014-Nov-19 18:33N 33°51' W 118°24'0 0.0
2014-Nov-19 17:31N 33°51' W 118°24'0 0.1
2014-Nov-19 10:27N 33°50' W 118°24'0 0.1
2014-Nov-19 04:29N 33°51' W 118°24'6 6.5
2014-Nov-19 03:33N 33°54' W 118°29'6 6.0
2014-Nov-19 02:33N 33°51' W 118°24'0 0.0
2014-Nov-19 00:31N 33°51' W 118°24'  

Dump ship's entire track history